| time (UTC) | temp F | wind direction | speed MPH | gust MPH | rain 1hr in | rain 24hr in | rain mn in | humidity % | barometer mb |
| 20260505213417 | 79 | 222 | 9.0 | 20.0 | 0.00 | 0.00 | 0.00 | 100 | |
| 20260505212417 | 80 | 267 | 7.0 | 19.0 | 0.00 | 0.00 | 0.00 | 100 | |
| 20260505211417 | 80 | 160 | 11.0 | 14.0 | 0.00 | 0.00 | 0.00 | 100 | |
| 20260505210417 | 82 | 210 | 7.0 | 11.0 | 0.00 | 0.00 | 0.00 | 100 | |
| 20260505205417 | 81 | 244 | 11.0 | 19.0 | 0.00 | 0.00 | 0.00 | 100 | |
| 20260505204417 | 81 | 188 | 7.0 | 22.0 | 0.00 | 0.00 | 0.00 | 100 | |
| 20260505203417 | 83 | 189 | 16.0 | 16.0 | 0.00 | 0.00 | 0.00 | 100 | |
| 20260505202417 | 82 | 289 | 9.0 | 19.0 | 0.00 | 0.00 | 0.00 | 100 | |
| 20260505201417 | 82 | 262 | 6.0 | 27.0 | 0.00 | 0.00 | 0.00 | 100 | |
| 20260505200417 | 80 | 246 | 4.0 | 26.0 | 0.00 | 0.00 | 0.00 | 100 | |
| 20260505195417 | 83 | 188 | 3.0 | 9.0 | 0.00 | 0.00 | 0.00 | 100 | |
| 20260505194417 | 82 | 201 | 16.0 | 25.0 | 0.00 | 0.00 | 0.00 | 100 | |
| 20260505193417 | 82 | 268 | 7.0 | 17.0 | 0.00 | 0.00 | 0.00 | 100 | |
| 20260505192417 | 83 | 251 | 6.0 | 26.0 | 0.00 | 0.00 | 0.00 | 100 | |
| 20260505191417 | 81 | 206 | 6.0 | 21.0 | 0.00 | 0.00 | 0.00 | 100 | |
| 20260505190417 | 83 | 160 | 7.0 | 18.0 | 0.00 | 0.00 | 0.00 | 100 | |
| 20260505185417 | 84 | 236 | 12.0 | 15.0 | 0.00 | 0.00 | 0.00 | 100 | |
| 20260505184417 | 85 | 250 | 4.0 | 16.0 | 0.00 | 0.00 | 0.00 | 100 | |
| 20260505183417 | 86 | 251 | 8.0 | 15.0 | 0.00 | 0.00 | 0.00 | 100 | |
| 20260505182417 | 84 | 257 | 7.0 | 15.0 | 0.00 | 0.00 | 0.00 | 100 | |
| 20260505181417 | 84 | 230 | 10.0 | 18.0 | 0.00 | 0.00 | 0.00 | 100 | |
| 20260505180417 | 83 | 240 | 7.0 | 24.0 | 0.00 | 0.00 | 0.00 | 100 | |
| 20260505175417 | 83 | 201 | 12.0 | 15.0 | 0.00 | 0.00 | 0.00 | 100 | |
| 20260505174417 | 83 | 253 | 7.0 | 12.0 | 0.00 | 0.00 | 0.00 | 100 | |
| 20260505173417 | 84 | 230 | 9.0 | 16.0 | 0.00 | 0.00 | 0.00 | 100 | |
| 20260505172417 | 82 | 189 | 13.0 | 16.0 | 0.00 | 0.00 | 0.00 | 100 | |
| 20260505171417 | 83 | 255 | 4.0 | 14.0 | 0.00 | 0.00 | 0.00 | 100 | |
| 20260505170417 | 82 | 168 | 6.0 | 19.0 | 0.00 | 0.00 | 0.00 | 100 | |
| 20260505165417 | 81 | 244 | 3.0 | 11.0 | 0.00 | 0.00 | 0.00 | 100 | |
| 20260505164417 | 81 | 282 | 3.0 | 15.0 | 0.00 | 0.00 | 0.00 | 100 | |
| 20260505163417 | 81 | 230 | 6.0 | 16.0 | 0.00 | 0.00 | 0.00 | 100 | |
| 20260505162417 | 79 | 300 | 9.0 | 15.0 | 0.00 | 0.00 | 0.00 | 100 | |
| 20260505161417 | 80 | 244 | 6.0 | 10.0 | 0.00 | 0.00 | 0.00 | 100 | |
| 20260505160417 | 78 | 244 | 1.0 | 9.0 | 0.00 | 0.00 | 0.00 | 100 | |
| 20260505152417 | 75 | 199 | 4.0 | 10.0 | 0.00 | 0.00 | 0.00 | 100 | |
| 20260505151417 | 75 | 247 | 3.0 | 7.0 | 0.00 | 0.00 | 0.00 | 100 | |
| 20260505150417 | 75 | 216 | 7.0 | 10.0 | 0.00 | 0.00 | 0.00 | 100 | |
| 20260505140417 | 69 | 251 | 4.0 | 8.0 | 0.00 | 0.00 | 0.00 | 100 | |
| 20260505124417 | 66 | 234 | 5.0 | 8.0 | 0.00 | 0.00 | 0.00 | 100 | |
| 20260505123417 | 64 | 261 | 5.0 | 9.0 | 0.00 | 0.00 | 0.00 | 100 | |
| 20260505122417 | 63 | 260 | 5.0 | 8.0 | 0.00 | 0.00 | 0.00 | 100 | |
| 20260505121417 | 64 | 240 | 5.0 | 10.0 | 0.00 | 0.00 | 0.00 | 100 | |
| 20260505120417 | 63 | 217 | 5.0 | 10.0 | 0.00 | 0.00 | 0.00 | 100 | |
| 20260505115417 | 63 | 241 | 7.0 | 10.0 | 0.00 | 0.00 | 0.00 | 100 | |
| 20260505114417 | 62 | 260 | 8.0 | 11.0 | 0.00 | 0.00 | 0.00 | 100 | |
| 20260505113417 | 62 | 247 | 4.0 | 12.0 | 0.00 | 0.00 | 0.00 | 100 | |
| 20260505112417 | 60 | 257 | 5.0 | 10.0 | 0.00 | 0.00 | 0.00 | 100 | |
| 20260505111417 | 60 | 246 | 5.0 | 12.0 | 0.00 | 0.00 | 0.00 | 100 | |
| 20260505110417 | 59 | 250 | 7.0 | 10.0 | 0.00 | 0.00 | 0.00 | 100 | |
| 20260505101418 | 54 | 237 | 5.0 | 9.0 | 0.00 | 0.00 | 0.00 | 100 | |
| 20260505100418 | 54 | 237 | 5.0 | 7.0 | 0.00 | 0.00 | 0.00 | 100 | |
| 20260505095418 | 53 | 251 | 4.0 | 6.0 | 0.00 | 0.00 | 0.00 | 100 | |
| 20260505094418 | 54 | 260 | 4.0 | 7.0 | 0.00 | 0.00 | 0.00 | 100 | |
| 20260505093418 | 53 | 257 | 5.0 | 7.0 | 0.00 | 0.00 | 0.00 | 100 | |
| 20260505092418 | 54 | 246 | 5.0 | 10.0 | 0.00 | 0.00 | 0.00 | 100 | |
| 20260505091418 | 53 | 229 | 4.0 | 9.0 | 0.00 | 0.00 | 0.00 | 100 | |
| 20260505090418 | 54 | 232 | 6.0 | 9.0 | 0.00 | 0.00 | 0.00 | 100 | |
| 20260505085418 | 54 | 229 | 5.0 | 8.0 | 0.00 | 0.00 | 0.00 | 100 | |
| 20260505084418 | 53 | 246 | 5.0 | 9.0 | 0.00 | 0.00 | 0.00 | 100 | |
| 20260505083418 | 54 | 222 | 6.0 | 9.0 | 0.00 | 0.00 | 0.00 | 100 | |
| 20260505082418 | 54 | 277 | 4.0 | 9.0 | 0.00 | 0.00 | 0.00 | 100 | |
| 20260505081418 | 54 | 237 | 4.0 | 9.0 | 0.00 | 0.00 | 0.00 | 100 | |
| 20260505080418 | 53 | 248 | 4.0 | 9.0 | 0.00 | 0.00 | 0.00 | 100 | |
| 20260505075418 | 53 | 240 | 2.0 | 9.0 | 0.00 | 0.00 | 0.00 | 100 | |
| 20260505074418 | 53 | 247 | 3.0 | 6.0 | 0.00 | 0.00 | 0.00 | 100 | |
| 20260505073418 | 53 | 241 | 5.0 | 9.0 | 0.00 | 0.00 | 0.00 | 100 | |
| 20260505072418 | 53 | 216 | 2.0 | 6.0 | 0.00 | 0.00 | 0.00 | 100 | |
| 20260505071418 | 53 | 232 | 4.0 | 5.0 | 0.00 | 0.00 | 0.00 | 100 | |
| 20260505070418 | 53 | 255 | 4.0 | 5.0 | 0.00 | 0.00 | 0.00 | 100 | |
| 20260505065418 | 54 | 229 | 6.0 | 7.0 | 0.00 | 0.00 | 0.00 | 100 | |
| 20260505064418 | 54 | 246 | 4.0 | 7.0 | 0.00 | 0.00 | 0.00 | 100 | |
| 20260505063418 | 54 | 268 | 4.0 | 8.0 | 0.00 | 0.00 | 0.00 | 100 | |
| 20260505062418 | 54 | 268 | 5.0 | 8.0 | 0.00 | 0.00 | 0.00 | 100 | |
| 20260505061418 | 54 | 246 | 5.0 | 8.0 | 0.00 | 0.00 | 0.00 | 100 | |
| 20260505060418 | 54 | 226 | 6.0 | 7.0 | 0.00 | 0.00 | 0.00 | 100 | |
| 20260505055418 | 55 | 257 | 4.0 | 8.0 | 0.00 | 0.00 | 0.00 | 100 | |
| 20260505054418 | 55 | 254 | 5.0 | 11.0 | 0.00 | 0.00 | 0.00 | 100 | |
| 20260505053418 | 55 | 254 | 4.0 | 11.0 | 0.00 | 0.00 | 0.00 | 100 | |
| 20260505052418 | 56 | 247 | 3.0 | 9.0 | 0.00 | 0.00 | 0.00 | 100 | |
| 20260505051418 | 56 | 264 | 4.0 | 10.0 | 0.00 | 0.00 | 0.00 | 100 | |
| 20260505050418 | 55 | 227 | 7.0 | 9.0 | 0.00 | 0.00 | 0.00 | 100 | |
| 20260505041418 | 56 | 271 | 6.0 | 10.0 | 0.00 | 0.00 | 0.00 | 100 | |
| 20260505040418 | 56 | 264 | 4.0 | 9.0 | 0.00 | 0.00 | 0.00 | 100 | |
| 20260505035418 | 57 | 254 | 5.0 | 10.0 | 0.00 | 0.00 | 0.00 | 100 | |
| 20260505034418 | 57 | 236 | 5.0 | 8.0 | 0.00 | 0.00 | 0.00 | 100 | |
| 20260505033418 | 58 | 243 | 4.0 | 11.0 | 0.00 | 0.00 | 0.00 | 100 | |
| 20260505032419 | 58 | 230 | 5.0 | 9.0 | 0.00 | 0.00 | 0.00 | 100 | |
| 20260505031418 | 58 | 236 | 5.0 | 9.0 | 0.00 | 0.00 | 0.00 | 100 | |
| 20260505030418 | 58 | 229 | 5.0 | 10.0 | 0.00 | 0.00 | 0.00 | 100 | |
| 20260505025418 | 58 | 226 | 8.0 | 9.0 | 0.00 | 0.00 | 0.00 | 100 | |
| 20260505024418 | 59 | 240 | 4.0 | 15.0 | 0.00 | 0.00 | 0.00 | 100 | |
| 20260505023418 | 59 | 232 | 6.0 | 10.0 | 0.00 | 0.00 | 0.00 | 100 | |
| 20260505022418 | 59 | 253 | 9.0 | 9.0 | 0.00 | 0.00 | 0.00 | 100 | |
| 20260505021419 | 59 | 223 | 4.0 | 7.0 | 0.00 | 0.00 | 0.00 | 100 | |
| 20260505020419 | 60 | 227 | 4.0 | 10.0 | 0.00 | 0.00 | 0.00 | 100 | |
| 20260505015419 | 61 | 246 | 5.0 | 10.0 | 0.00 | 0.00 | 0.00 | 100 | |
| 20260505014419 | 60 | 243 | 8.0 | 16.0 | 0.00 | 0.00 | 0.00 | 100 | |
| 20260505013419 | 61 | 239 | 5.0 | 11.0 | 0.00 | 0.00 | 0.00 | 100 | |
| 20260505012419 | 61 | 232 | 6.0 | 10.0 | 0.00 | 0.00 | 0.00 | 100 | |
| 20260505011419 | 61 | 243 | 7.0 | 9.0 | 0.00 | 0.00 | 0.00 | 100 | |
| 20260505010419 | 62 | 230 | 4.0 | 11.0 | 0.00 | 0.00 | 0.00 | 100 | |
| 20260505005419 | 62 | 234 | 7.0 | 11.0 | 0.00 | 0.00 | 0.00 | 100 | |
| 20260505004419 | 63 | 205 | 7.0 | 11.0 | 0.00 | 0.00 | 0.00 | 100 | |
| 20260505003419 | 64 | 223 | 9.0 | 10.0 | 0.00 | 0.00 | 0.00 | 100 | |
| 20260505002419 | 64 | 264 | 6.0 | 6.0 | 0.00 | 0.00 | 0.00 | 100 | |
| 20260505001419 | 64 | 291 | 3.0 | 7.0 | 0.00 | 0.00 | 0.00 | 100 | |
| 20260505000420 | 64 | 262 | 3.0 | 5.0 | 0.00 | 0.00 | 0.00 | 100 | |
| 20260504235419 | 64 | 248 | 2.0 | 5.0 | 0.00 | 0.00 | 0.00 | 100 | |
| 20260504234419 | 65 | 255 | 5.0 | 7.0 | 0.00 | 0.00 | 0.00 | 100 | |
| 20260504233419 | 67 | 254 | 4.0 | 8.0 | 0.00 | 0.00 | 0.00 | 100 | |
| 20260504232419 | 67 | 277 | 3.0 | 7.0 | 0.00 | 0.00 | 0.00 | 100 | |
| 20260504231419 | 67 | 291 | 7.0 | 7.0 | 0.00 | 0.00 | 0.00 | 100 | |
| 20260504230419 | 68 | 264 | 3.0 | 11.0 | 0.00 | 0.00 | 0.00 | 100 | |
| 20260504225419 | 69 | 250 | 3.0 | 8.0 | 0.00 | 0.00 | 0.00 | 100 | |
| 20260504224419 | 70 | 278 | 4.0 | 13.0 | 0.00 | 0.00 | 0.00 | 100 | |
| 20260504223419 | 71 | 260 | 4.0 | 11.0 | 0.00 | 0.00 | 0.00 | 100 | |
| 20260504222419 | 70 | 265 | 5.0 | 13.0 | 0.00 | 0.00 | 0.00 | 100 | |
| 20260504221419 | 70 | 289 | 9.0 | 12.0 | 0.00 | 0.00 | 0.00 | 100 | |
| 20260504220419 | 69 | 261 | 6.0 | 11.0 | 0.00 | 0.00 | 0.00 | 100 | |
| 20260504215419 | 70 | 264 | 11.0 | 13.0 | 0.00 | 0.00 | 0.00 | 100 | |
| 20260504214419 | 72 | 282 | 5.0 | 9.0 | 0.00 | 0.00 | 0.00 | 100 |